Date,TemperatureHighF,TemperatureAvgF,TemperatureLowF,DewpointHighF,DewpointAvgF,DewpointLowF,HumidityHigh,HumidityAvg,HumidityLow,PressureMaxIn,PressureMinIn,WindSpeedMaxMPH,WindSpeedAvgMPH,GustSpeedMaxMPH,PrecipitationSumIn
2013-1-1,33.0,25.1,15.0,20.0,13.2,5.0,76,61,47,0.00,40.00,13,6,28,0.00
2013-1-2,30.0,23.7,15.0,19.0,12.8,6.0,79,63,45,0.00,40.00,13,7,29,0.00
2013-1-3,43.0,25.2,8.0,14.0,6.0,-2.0,83,48,18,0.00,40.00,11,3,21,0.00
2013-1-4,55.0,37.3,26.0,20.0,6.0,-4.0,50,29,11,0.00,40.00,10,4,18,0.00
2013-1-5,41.0,33.2,28.0,18.0,14.8,7.0,64,47,31,0.00,40.00,15,7,23,0.00
2013-1-6,49.0,39.2,23.0,17.0,8.0,2.0,53,29,15,0.00,40.00,11,7,23,0.00
2013-1-7,45.0,36.2,28.0,22.0,15.9,10.0,63,44,28,0.00,40.00,11,4,18,0.00
2013-1-8,44.0,36.3,29.0,21.0,16.5,13.0,59,45,37,0.00,40.00,12,7,27,0.00
2013-1-9,52.0,41.4,29.0,24.0,19.7,16.0,62,43,28,0.00,40.00,14,8,37,0.00
2013-1-10,52.0,45.4,37.0,19.0,15.3,11.0,43,30,20,0.00,40.00,12,8,27,0.00
2013-1-11,49.0,18.8,4.0,23.0,13.1,-4.0,96,80,28,0.00,40.00,13,7,23,0.00
2013-1-12,12.0,5.2,2.0,6.0,-0.9,-6.0,82,76,69,0.00,40.00,12,5,24,0.00
2013-1-13,18.0,8.6,1.0,8.0,1.3,-4.0,81,72,57,0.00,40.00,9,4,17,0.02
2013-1-14,20.0,12.0,7.0,0.0,-2.5,-7.0,68,52,37,0.00,40.00,11,8,25,0.01
2013-1-15,34.0,23.1,6.0,24.0,10.2,-10.0,75,58,29,0.00,40.00,17,11,33,0.01
2013-1-16,44.0,34.6,29.0,24.0,19.5,17.0,72,55,34,0.00,40.00,19,9,32,0.07
2013-1-17,46.0,37.9,33.0,19.0,17.4,16.0,53,43,32,0.00,40.00,13,8,26,0.02
2013-1-18,52.0,41.5,36.0,19.0,15.0,11.0,46,34,25,0.00,40.00,13,7,26,0.01
2013-1-19,46.0,34.7,25.0,25.0,18.6,14.0,82,54,28,0.00,40.00,13,6,24,0.00
2013-1-20,35.0,20.3,10.0,21.0,14.4,7.0,87,78,41,0.00,40.00,10,5,18,0.00
2013-1-21,22.0,12.0,9.0,12.0,7.8,5.0,88,84,66,0.00,40.00,8,3,12,0.00
2013-1-22,49.0,34.6,10.0,14.0,10.0,5.0,86,40,20,0.00,40.00,10,5,18,0.00
2013-1-23,36.0,20.6,11.0,15.0,10.5,5.0,88,69,27,0.00,40.00,5,3,12,0.00
2013-1-24,57.0,37.5,11.0,24.0,16.2,8.0,88,48,19,0.00,40.00,16,5,26,0.00
2013-1-25,52.0,38.9,31.0,25.0,21.0,15.0,67,49,25,0.00,40.00,11,6,20,0.00
2013-1-26,53.0,43.0,38.0,27.0,23.9,20.0,55,47,33,0.00,40.00,8,4,19,0.00
2013-1-27,53.0,40.9,29.0,30.0,25.9,21.0,90,57,41,0.00,40.00,10,4,19,0.00
2013-1-28,30.0,27.5,26.0,28.0,26.0,25.0,97,94,83,0.00,40.00,7,3,12,0.00
2013-1-29,34.0,25.2,12.0,25.0,15.6,3.0,95,69,37,0.00,40.00,12,6,20,0.04
2013-1-30,30.0,17.0,5.0,19.0,7.8,-2.0,89,68,50,0.00,40.00,11,5,23,0.01
2013-1-31,25.0,12.8,7.0,16.0,6.6,2.0,84,76,67,0.00,40.00,11,6,18,0.00